world map with CTU marked

CTU - Airport

This information may not be accurate or current and is not valid for navigation or flight planning. No warranty of fitness for any purpose is made or implied.

flag of China

Donate via PayPal

Additional information is available on the NEW Great Circle Mapper

Location
City:  Chengdu, Sichuan, China
Name:Shuangliu International Airport
ICAO / IATA:ZUUU / CTU

Details
Type:Airport (Aerodrome, Airfield)
Use:Public/Civil
Latitude:30°35'N (30.580)
Longitude:103°57'E (103.948)
Elevation:1681 ft (512 m)
Runways:2
Longest:11811 × 197 ft (3600 × 60 m)

Time
Timezone:UTC+8 (DST+10)
Local Time:

Weather
METAR:ZUUU  192200Z 00000MPS 8000 FEW010 SCT020 14/14 Q1020 NOSIG
TAF:ZUUU  192001Z 2000/2024 02003MPS 3500 BR FEW010 SCT030 TX18/2007Z TN14/2023Z

Related Locations
Nearby:
Farthest:SCOA: 12181 mi / 19603 km
Ovalle [Estancia Los Loros Airport], CO, CL

Find:

   beyond  
but within

Other Information
Maps:
Sources:

  


 


Great Circle Mapper   Great Circle Mapper
Great Circle Mapper FAQ   Great Circle Mapper FAQ
  Karl's Home Page
KLSē   KLSē Home
   GC on Facebook
Airlines of the World   Airlines of the World
Donate via PayPal


Copyright © 2004-2018, Karl L. Swartz. All rights reserved.
All trademarks mentioned herein belong to their respective owners.

Please see credits for attribution and copyright information.

Karl Swartz <karl@kls2.com>
  Powered by FreeBSD
Valid HTML 4.01!
Labeled with ICRA
hCard Microformat
Geo Microformat